This is the latest recevied weather packets stored in our database for station/object M0UPS-13. If no packets are shown the sender has not sent any weather packets the latest 10 day(s).
| Time | Temp. | Humidity | Pressure | Rain* | Wind** | Luminosity | Snow |
|---|---|---|---|---|---|---|---|
| 1778051702 | 10° C | 71% | 1013.6 hPa | 0 mm | - | 149 W/m² | - |
| 1778051402 | 10° C | 73% | 1013.6 hPa | 0 mm | - | 141 W/m² | - |
| 1778051102 | 9.44° C | 72% | 1013.4 hPa | 0 mm | - | 119 W/m² | - |
| 1778050803 | 9.44° C | 73% | 1013.4 hPa | 0 mm | - | 118 W/m² | - |
| 1778050502 | 9.44° C | 73% | 1013.5 hPa | 0 mm | - | 91 W/m² | - |
| 1778050202 | 9.44° C | 72% | 1013.4 hPa | 0 mm | - | 72 W/m² | - |
| 1778049902 | 9.44° C | 72% | 1013.4 hPa | 0 mm | - | 117 W/m² | - |
| 1778049603 | 9.44° C | 73% | 1013.2 hPa | 0 mm | - | 130 W/m² | - |
| 1778049302 | 9.44° C | 73% | 1013.4 hPa | 0 mm | - | 124 W/m² | - |
| 1778049002 | 9.44° C | 72% | 1013.3 hPa | 0 mm | - | 82 W/m² | - |
| 1778048703 | 9.44° C | 73% | 1013.3 hPa | 0 mm | - | 78 W/m² | - |
| 1778048402 | 9.44° C | 73% | 1013.4 hPa | 0 mm | - | 99 W/m² | - |
| 1778048102 | 8.89° C | 73% | 1013.2 hPa | 0 mm | - | 82 W/m² | - |
| 1778047802 | 9.44° C | 73% | 1013.3 hPa | 0 mm | - | 74 W/m² | - |
| 1778047502 | 9.44° C | 72% | 1013.4 hPa | 0 mm | - | 73 W/m² | - |
| 1778047203 | 8.89° C | 74% | 1013 hPa | 0 mm | - | 90 W/m² | - |
| 1778046902 | 8.89° C | 73% | 1013.3 hPa | 0 mm | - | 92 W/m² | - |
| 1778046602 | 8.89° C | 73% | 1013.2 hPa | 0 mm | - | 83 W/m² | - |
| 1778046302 | 8.89° C | 75% | 1013.1 hPa | 0 mm | - | 71 W/m² | - |
| 1778046002 | 8.89° C | 75% | 1013.2 hPa | 0 mm | - | 61 W/m² | - |
| 1778045702 | 8.89° C | 75% | 1013.1 hPa | 0 mm | - | 56 W/m² | - |
| 1778045402 | 8.89° C | 76% | 1013.1 hPa | 0 mm | - | 48 W/m² | - |
| 1778045102 | 8.89° C | 76% | 1013 hPa | 0 mm | - | 40 W/m² | - |
| 1778044802 | 8.89° C | 76% | 1013.2 hPa | 0 mm | - | 34 W/m² | - |
| 1778044502 | 8.89° C | 77% | 1012.9 hPa | 0 mm | - | 24 W/m² | - |
* Rain latest hour (hover to see other rain measurements)
** Current wind speed in m/s (hover to see current wind gust speed)